Regional Weather Roundup
Issued by NWS

Home | Current Version | Previous Version | Graphics & Text | Print | Product List | Glossary On
Versions: 1 2 3 4 5 6 7 8 9 10 11 12 13 14 15 16 17 18 19 20 21 22 23 24 25 26 27 28 29 30 31 32 33 34 35 36 37 38 39 40 41 42 43 44 45 46 47 48 49 50
000
ASUS43 KOAX 212302
RWRNE

WEATHER ROUNDUP FOR NEBRASKA
NATIONAL WEATHER SERVICE OMAHA NE
500 PM CST SUN DEC 21 2014

NOTES: SATELLITE DATA IS BEING USED TO AUGMENT CLOUD COVER ABOVE
       12000 FEET.
       "FAIR" INDICATES FEW OR NO CLOUDS BELOW 12,000 FEET WITH NO
       SIGNIFICANT WEATHER AND/OR OBSTRUCTIONS TO VISIBILITY.

  * THESE STATIONS DO NOT REPORT WEATHER SUCH AS RAIN...SNOW OR FOG.

NEZ001>004-019>022-054>056-220000-
NEBRASKA PANHANDLE

CITY           SKY/WX    TMP DP  RH WIND       PRES   REMARKS
SCOTTSBLUFF    CLOUDY    41  32  70 NW10G20   29.47R
ALLIANCE       CLOUDY    38  32  79 W10       29.45R WCI  31
CHADRON        CLOUDY    43  31  62 W13       29.44R
SIDNEY         CLOUDY    43  32  65 NW10      29.50S
$$

NEZ057>060-069>072-079>082-220000-
SOUTHWEST NEBRASKA

CITY           SKY/WX    TMP DP  RH WIND       PRES   REMARKS
NORTH PLATTE   CLOUDY    39  32  76 SE6       29.50F WCI  35
IMPERIAL       CLOUDY    44  31  60 S8        29.50F
MCCOOK         CLOUDY    38  32  79 S9        29.54F WCI  31
$$

NEZ005>010-023>029-035>040-094-220000-
NORTH CENTRAL NEBRASKA

CITY           SKY/WX    TMP DP  RH WIND       PRES   REMARKS
VALENTINE      CLOUDY    39  31  72 SW10      29.41F WCI  32
BROKEN BOW     CLOUDY    37  34  89 S8        29.54F WCI  31
$$

NEZ041-046>049-061>064-073>077-083>087-220000-
SOUTH CENTRAL NEBRASKA

CITY           SKY/WX    TMP DP  RH WIND       PRES   REMARKS
GRAND ISLAND   CLOUDY    41  38  89 S15       29.63R
HASTINGS       CLOUDY    40  37  89 S9        29.62S FOG     WCI  34
KEARNEY *      CLOUDY    39  36  87 SE10      29.59F WCI  32
$$

NEZ011>018-030>034-042>045-220000-
NORTHEAST NEBRASKA

CITY           SKY/WX    TMP DP  RH WIND       PRES   REMARKS
NORFOLK        CLOUDY    41  39  93 S10G20    29.61R
BLAIR          CLOUDY    41  38  89 S17G23    29.69F FOG
COLUMBUS *     CLOUDY    41  36  81 S20G25    29.66S
TEKAMAH        CLOUDY    41  38  89 S14       29.69F
$$

NEZ050>053-065>068-078-088>093-220000-
SOUTHEAST NEBRASKA

CITY           SKY/WX    TMP DP  RH WIND       PRES   REMARKS
LINCOLN        CLOUDY    42  39  89 S18       29.69F FOG
OMAHA EPPLEY   CLOUDY    41  38  89 S16       29.73F
FALLS CITY     CLOUDY    43  39  86 S14       29.76F
$$

NEZ044-045-051>053-067-220000-
OMAHA AREA

CITY           SKY/WX    TMP DP  RH WIND       PRES   REMARKS
OMAHA EPPLEY   CLOUDY    41  38  89 S16       29.73F
BLAIR          CLOUDY    41  38  89 S17G23    29.69F FOG
OFFUTT AFB     CLOUDY    41  39  92 SE14      29.72F
$$


USA.gov is the U.S. government's official web portal to all federal, state and local government web resources and services.